Time,TemperatureF,DewpointF,PressureIn,WindDirection,WindDirectionDegrees,WindSpeedMPH,WindSpeedGustMPH,Humidity,HourlyPrecipIn,Conditions,Clouds,dailyrainin,SolarRadiationWatts/m^2,SoftwareType,DateUTC
2013-05-18 00:02:00,52.3,50.0,30.17,NNE,32,2.0,2.0,92,0.00,,,0.00,0,Wunderground v.1.15,2013-05-18 05:02:00,
2013-05-18 00:07:00,52.3,50.3,30.17,NE,34,2.0,3.0,93,0.00,,,0.00,0,Wunderground v.1.15,2013-05-18 05:07:00,
2013-05-18 00:13:00,52.4,50.4,30.18,NNE,17,1.0,2.0,93,0.00,,,0.00,0,Wunderground v.1.15,2013-05-18 05:13:00,
2013-05-18 00:18:00,52.4,50.4,30.18,NNE,20,3.0,3.0,93,0.00,,,0.00,0,Wunderground v.1.15,2013-05-18 05:18:00,
2013-05-18 00:24:00,52.4,50.4,30.17,NNE,26,3.0,4.0,93,0.00,,,0.00,0,Wunderground v.1.15,2013-05-18 05:24:00,
2013-05-18 00:30:00,52.5,50.5,30.18,NNE,26,2.0,2.0,93,0.00,,,0.00,0,Wunderground v.1.15,2013-05-18 05:30:00,
2013-05-18 00:35:00,52.5,50.5,30.17,North,355,2.0,4.0,93,0.00,,,0.00,0,Wunderground v.1.15,2013-05-18 05:35:00,
2013-05-18 00:40:00,52.6,50.6,30.16,NNE,26,3.0,3.0,93,0.00,,,0.00,0,Wunderground v.1.15,2013-05-18 05:40:00,
2013-05-18 00:45:00,52.5,50.5,30.16,NNE,16,1.0,6.0,93,0.00,,,0.00,0,Wunderground v.1.15,2013-05-18 05:45:00,
2013-05-18 00:50:00,52.5,50.5,30.16,NNE,24,2.0,2.0,93,0.00,,,0.00,0,Wunderground v.1.15,2013-05-18 05:50:00,
2013-05-18 00:56:00,52.5,50.5,30.17,NNE,24,0.0,2.0,93,0.00,,,0.00,0,Wunderground v.1.15,2013-05-18 05:56:00,
2013-05-18 01:01:00,52.5,50.5,30.17,NNE,24,3.0,3.0,93,0.00,,,0.00,0,Wunderground v.1.15,2013-05-18 06:01:00,
2013-05-18 01:06:00,52.5,50.5,30.17,NNE,24,0.0,3.0,93,0.00,,,0.00,0,Wunderground v.1.15,2013-05-18 06:06:00,
2013-05-18 01:11:00,52.5,50.5,30.17,NNE,24,0.0,0.0,93,0.00,,,0.00,0,Wunderground v.1.15,2013-05-18 06:11:00,
2013-05-18 01:16:00,52.4,50.4,30.18,NNE,24,0.0,0.0,93,0.00,,,0.00,0,Wunderground v.1.15,2013-05-18 06:16:00,
2013-05-18 01:21:00,52.4,50.4,30.17,NNE,26,0.0,2.0,93,0.00,,,0.00,0,Wunderground v.1.15,2013-05-18 06:21:00,
2013-05-18 01:27:00,52.4,50.4,30.17,NE,43,1.0,2.0,93,0.00,,,0.00,0,Wunderground v.1.15,2013-05-18 06:27:00,
2013-05-18 01:32:00,52.3,50.3,30.17,NNE,27,1.0,1.0,93,0.00,,,0.00,0,Wunderground v.1.15,2013-05-18 06:32:00,
2013-05-18 01:37:00,52.3,50.3,30.17,NNE,28,2.0,2.0,93,0.00,,,0.00,0,Wunderground v.1.15,2013-05-18 06:37:00,
2013-05-18 01:42:00,52.2,50.2,30.17,NNW,348,0.0,1.0,93,0.00,,,0.00,0,Wunderground v.1.15,2013-05-18 06:42:00,
2013-05-18 01:47:00,52.2,50.2,30.17,North,355,2.0,2.0,93,0.00,,,0.00,0,Wunderground v.1.15,2013-05-18 06:47:00,
2013-05-18 01:52:00,52.1,50.1,30.17,North,360,0.0,2.0,93,0.00,,,0.00,0,Wunderground v.1.15,2013-05-18 06:52:00,
2013-05-18 01:57:00,52.0,50.0,30.17,North,5,0.0,2.0,93,0.00,,,0.00,0,Wunderground v.1.15,2013-05-18 06:57:00,
2013-05-18 02:02:00,52.0,50.0,30.17,NE,35,0.0,5.0,93,0.00,,,0.00,0,Wunderground v.1.15,2013-05-18 07:02:00,
2013-05-18 02:07:00,52.0,50.0,30.17,NE,36,1.0,5.0,93,0.00,,,0.00,0,Wunderground v.1.15,2013-05-18 07:07:00,
2013-05-18 02:12:00,51.9,49.9,30.17,NNE,26,0.0,3.0,93,0.00,,,0.00,0,Wunderground v.1.15,2013-05-18 07:12:00,
2013-05-18 02:17:00,51.9,50.2,30.17,NNE,18,0.0,4.0,94,0.00,,,0.00,0,Wunderground v.1.15,2013-05-18 07:17:00,
2013-05-18 02:22:00,51.9,50.2,30.17,NNE,16,0.0,3.0,94,0.00,,,0.00,0,Wunderground v.1.15,2013-05-18 07:22:00,
2013-05-18 02:27:00,51.9,50.2,30.17,NNE,17,2.0,4.0,94,0.00,,,0.00,0,Wunderground v.1.15,2013-05-18 07:27:00,
2013-05-18 02:32:00,51.9,50.2,30.17,NNE,22,0.0,1.0,94,0.00,,,0.00,0,Wunderground v.1.15,2013-05-18 07:32:00,
2013-05-18 02:37:00,51.9,50.2,30.17,NNE,21,0.0,4.0,94,0.00,,,0.00,0,Wunderground v.1.15,2013-05-18 07:37:00,
2013-05-18 02:42:00,51.9,50.2,30.17,NNE,21,2.0,2.0,94,0.00,,,0.00,0,Wunderground v.1.15,2013-05-18 07:42:00,
2013-05-18 02:47:00,51.9,50.2,30.17,NNE,21,1.0,3.0,94,0.00,,,0.00,0,Wunderground v.1.15,2013-05-18 07:47:00,
2013-05-18 02:52:00,51.9,50.2,30.17,NNE,22,0.0,3.0,94,0.00,,,0.00,0,Wunderground v.1.15,2013-05-18 07:52:00,
2013-05-18 02:57:00,51.9,50.2,30.17,NNE,22,0.0,5.0,94,0.00,,,0.00,0,Wunderground v.1.15,2013-05-18 07:57:00,
2013-05-18 03:02:00,51.9,50.2,30.17,NNE,33,0.0,3.0,94,0.00,,,0.00,0,Wunderground v.1.15,2013-05-18 08:02:00,
2013-05-18 03:07:00,52.0,50.3,30.17,NNE,33,0.0,3.0,94,0.00,,,0.00,0,Wunderground v.1.15,2013-05-18 08:07:00,
2013-05-18 03:12:00,52.0,50.3,30.17,NNE,30,1.0,3.0,94,0.00,,,0.00,0,Wunderground v.1.15,2013-05-18 08:12:00,
2013-05-18 03:17:00,52.0,50.3,30.17,NNE,30,0.0,4.0,94,0.00,,,0.00,0,Wunderground v.1.15,2013-05-18 08:17:00,
2013-05-18 03:22:00,52.0,50.3,30.17,NNE,31,0.0,4.0,94,0.00,,,0.00,0,Wunderground v.1.15,2013-05-18 08:22:00,
2013-05-18 03:27:00,52.0,50.3,30.16,NE,38,3.0,4.0,94,0.00,,,0.00,0,Wunderground v.1.15,2013-05-18 08:27:00,
2013-05-18 03:32:00,52.0,50.3,30.16,NE,44,0.0,1.0,94,0.00,,,0.00,0,Wunderground v.1.15,2013-05-18 08:32:00,
2013-05-18 03:37:00,52.0,50.3,30.15,NE,44,0.0,3.0,94,0.00,,,0.00,0,Wunderground v.1.15,2013-05-18 08:37:00,
2013-05-18 03:42:00,52.0,50.0,30.16,ENE,64,1.0,4.0,93,0.00,,,0.00,0,Wunderground v.1.15,2013-05-18 08:42:00,
2013-05-18 03:47:00,52.0,50.0,30.16,NNE,28,0.0,4.0,93,0.00,,,0.00,0,Wunderground v.1.15,2013-05-18 08:47:00,
2013-05-18 03:52:00,52.0,50.0,30.16,NNE,28,0.0,1.0,93,0.00,,,0.00,0,Wunderground v.1.15,2013-05-18 08:52:00,
2013-05-18 03:57:00,52.0,50.0,30.16,NNE,31,0.0,3.0,93,0.00,,,0.00,0,Wunderground v.1.15,2013-05-18 08:57:00,
2013-05-18 04:02:00,52.0,50.0,30.16,NE,45,2.0,2.0,93,0.00,,,0.00,0,Wunderground v.1.15,2013-05-18 09:02:00,
2013-05-18 04:07:00,52.0,50.0,30.16,NNE,23,0.0,5.0,93,0.00,,,0.00,0,Wunderground v.1.15,2013-05-18 09:07:00,
2013-05-18 04:12:00,52.0,50.0,30.16,NNE,23,0.0,1.0,93,0.00,,,0.00,0,Wunderground v.1.15,2013-05-18 09:12:00,
2013-05-18 04:17:00,52.0,50.0,30.15,NNE,23,1.0,2.0,93,0.00,,,0.00,0,Wunderground v.1.15,2013-05-18 09:17:00,
2013-05-18 04:23:00,52.0,50.0,30.15,NNE,31,0.0,4.0,93,0.00,,,0.00,0,Wunderground v.1.15,2013-05-18 09:23:00,
2013-05-18 04:28:00,52.0,50.0,30.15,NNE,30,1.0,4.0,93,0.00,,,0.00,0,Wunderground v.1.15,2013-05-18 09:28:00,
2013-05-18 04:33:00,51.9,49.9,30.14,NNE,31,0.0,2.0,93,0.00,,,0.00,0,Wunderground v.1.15,2013-05-18 09:33:00,
2013-05-18 04:38:00,51.9,49.9,30.15,NNE,30,2.0,3.0,93,0.00,,,0.00,0,Wunderground v.1.15,2013-05-18 09:38:00,
2013-05-18 04:43:00,51.8,49.8,30.15,NNE,32,0.0,6.0,93,0.00,,,0.00,0,Wunderground v.1.15,2013-05-18 09:43:00,
2013-05-18 04:48:00,51.7,49.5,30.15,NNE,32,0.0,6.0,92,0.00,,,0.00,0,Wunderground v.1.15,2013-05-18 09:48:00,
2013-05-18 04:53:00,51.6,49.4,30.15,NE,42,0.0,2.0,92,0.00,,,0.00,0,Wunderground v.1.15,2013-05-18 09:53:00,
2013-05-18 04:58:00,51.5,49.3,30.14,NE,41,1.0,3.0,92,0.00,,,0.00,0,Wunderground v.1.15,2013-05-18 09:58:00,
2013-05-18 05:03:00,51.4,49.4,30.15,NE,41,1.0,1.0,93,0.00,,,0.00,0,Wunderground v.1.15,2013-05-18 10:03:00,
2013-05-18 05:08:00,51.3,49.3,30.15,NE,42,1.0,3.0,93,0.00,,,0.00,0,Wunderground v.1.15,2013-05-18 10:08:00,
2013-05-18 05:13:00,51.2,49.2,30.15,NE,42,0.0,1.0,93,0.00,,,0.00,0,Wunderground v.1.15,2013-05-18 10:13:00,
2013-05-18 05:18:00,51.2,49.2,30.15,NE,46,0.0,3.0,93,0.00,,,0.00,0,Wunderground v.1.15,2013-05-18 10:18:00,
2013-05-18 05:23:00,51.2,49.2,30.15,NE,53,0.0,2.0,93,0.00,,,0.00,0,Wunderground v.1.15,2013-05-18 10:23:00,
2013-05-18 05:28:00,51.1,49.1,30.15,NE,53,1.0,3.0,93,0.00,,,0.00,0,Wunderground v.1.15,2013-05-18 10:28:00,
2013-05-18 05:33:00,51.1,49.1,30.15,NE,52,0.0,2.0,93,0.00,,,0.00,5,Wunderground v.1.15,2013-05-18 10:33:00,
2013-05-18 05:38:00,51.0,49.0,30.15,NE,52,0.0,2.0,93,0.00,,,0.00,9,Wunderground v.1.15,2013-05-18 10:38:00,
2013-05-18 05:43:00,50.9,48.9,30.15,NE,52,0.0,3.0,93,0.00,,,0.00,14,Wunderground v.1.15,2013-05-18 10:43:00,
2013-05-18 05:48:00,50.9,48.9,30.15,NE,48,1.0,4.0,93,0.00,,,0.00,21,Wunderground v.1.15,2013-05-18 10:48:00,
2013-05-18 05:53:00,50.8,48.8,30.15,NE,48,2.0,4.0,93,0.00,,,0.00,26,Wunderground v.1.15,2013-05-18 10:53:00,
2013-05-18 05:58:00,50.8,48.8,30.15,NE,48,0.0,4.0,93,0.00,,,0.00,35,Wunderground v.1.15,2013-05-18 10:58:00,
2013-05-18 06:03:00,50.9,49.2,30.15,NNE,14,0.0,4.0,94,0.00,,,0.00,44,Wunderground v.1.15,2013-05-18 11:03:00,
2013-05-18 06:08:00,51.0,49.3,30.15,NE,50,0.0,4.0,94,0.00,,,0.00,54,Wunderground v.1.15,2013-05-18 11:08:00,
2013-05-18 06:13:00,51.1,49.1,30.16,NE,40,0.0,4.0,93,0.00,,,0.00,67,Wunderground v.1.15,2013-05-18 11:13:00,
2013-05-18 06:19:00,51.3,49.3,30.16,NE,42,0.0,4.0,93,0.00,,,0.00,76,Wunderground v.1.15,2013-05-18 11:19:00,
2013-05-18 06:24:00,51.4,49.4,30.16,NNE,19,0.0,3.0,93,0.00,,,0.00,84,Wunderground v.1.15,2013-05-18 11:24:00,
2013-05-18 06:29:00,51.6,49.6,30.16,NNE,19,0.0,3.0,93,0.00,,,0.00,90,Wunderground v.1.15,2013-05-18 11:29:00,
2013-05-18 06:33:00,51.9,49.9,30.16,NNE,18,3.0,4.0,93,0.00,,,0.00,97,Wunderground v.1.15,2013-05-18 11:33:00,
2013-05-18 06:38:00,52.1,49.8,30.16,NNE,22,1.0,5.0,92,0.00,,,0.00,107,Wunderground v.1.15,2013-05-18 11:38:00,
2013-05-18 06:43:00,52.3,50.0,30.16,NNE,26,4.0,6.0,92,0.00,,,0.00,118,Wunderground v.1.15,2013-05-18 11:43:00,
2013-05-18 06:49:00,52.6,50.0,30.16,ENE,67,6.0,6.0,91,0.00,,,0.00,121,Wunderground v.1.15,2013-05-18 11:49:00,
2013-05-18 06:53:00,52.9,50.3,30.16,ENE,73,0.0,2.0,91,0.00,,,0.00,118,Wunderground v.1.15,2013-05-18 11:53:00,
2013-05-18 06:59:00,53.2,50.6,30.16,East,90,2.0,2.0,91,0.00,,,0.00,114,Wunderground v.1.15,2013-05-18 11:59:00,
2013-05-18 07:04:00,53.5,50.6,30.16,NE,55,0.0,4.0,90,0.00,,,0.00,102,Wunderground v.1.15,2013-05-18 12:04:00,
2013-05-18 07:09:00,53.7,50.8,30.16,East,82,3.0,5.0,90,0.00,,,0.00,118,Wunderground v.1.15,2013-05-18 12:09:00,
2013-05-18 07:14:00,54.0,51.1,30.16,ESE,103,0.0,7.0,90,0.00,,,0.00,130,Wunderground v.1.15,2013-05-18 12:14:00,
2013-05-18 07:19:00,54.3,51.4,30.17,ESE,103,0.0,7.0,90,0.00,,,0.00,148,Wunderground v.1.15,2013-05-18 12:19:00,
2013-05-18 07:24:00,54.6,51.7,30.17,ESE,103,0.0,2.0,90,0.00,,,0.00,139,Wunderground v.1.15,2013-05-18 12:24:00,
2013-05-18 07:29:00,54.9,51.7,30.17,East,98,0.0,4.0,89,0.00,,,0.00,128,Wunderground v.1.15,2013-05-18 12:29:00,
2013-05-18 07:34:00,55.2,51.7,30.17,East,96,0.0,4.0,88,0.00,,,0.00,214,Wunderground v.1.15,2013-05-18 12:34:00,
2013-05-18 07:39:00,55.5,52.0,30.17,East,95,0.0,4.0,88,0.00,,,0.00,186,Wunderground v.1.15,2013-05-18 12:39:00,
2013-05-18 07:44:00,55.9,52.4,30.17,East,95,1.0,2.0,88,0.00,,,0.00,185,Wunderground v.1.15,2013-05-18 12:44:00,
2013-05-18 07:49:00,56.2,52.4,30.17,East,94,1.0,2.0,87,0.00,,,0.00,186,Wunderground v.1.15,2013-05-18 12:49:00,
2013-05-18 07:54:00,56.5,52.0,30.17,East,94,1.0,2.0,85,0.00,,,0.00,195,Wunderground v.1.15,2013-05-18 12:54:00,
2013-05-18 07:59:00,56.8,52.3,30.17,East,94,5.0,5.0,85,0.00,,,0.00,218,Wunderground v.1.15,2013-05-18 12:59:00,
2013-05-18 08:04:00,57.1,52.3,30.17,East,92,2.0,5.0,84,0.00,,,0.00,251,Wunderground v.1.15,2013-05-18 13:04:00,
2013-05-18 08:09:00,57.3,52.2,30.17,East,90,0.0,5.0,83,0.00,,,0.00,258,Wunderground v.1.15,2013-05-18 13:09:00,
2013-05-18 08:14:00,57.6,52.5,30.17,East,87,2.0,4.0,83,0.00,,,0.00,214,Wunderground v.1.15,2013-05-18 13:14:00,
2013-05-18 08:19:00,57.9,52.1,30.17,East,89,4.0,6.0,81,0.00,,,0.00,206,Wunderground v.1.15,2013-05-18 13:19:00,
2013-05-18 08:24:00,58.1,52.0,30.16,East,92,5.0,5.0,80,0.00,,,0.00,209,Wunderground v.1.15,2013-05-18 13:24:00,
2013-05-18 08:29:00,58.3,51.5,30.17,East,100,5.0,8.0,78,0.00,,,0.00,204,Wunderground v.1.15,2013-05-18 13:29:00,
2013-05-18 08:34:00,58.4,51.6,30.16,East,96,5.0,6.0,78,0.00,,,0.00,216,Wunderground v.1.15,2013-05-18 13:34:00,
2013-05-18 08:39:00,58.6,52.4,30.16,ESE,122,1.0,7.0,80,0.00,,,0.00,199,Wunderground v.1.15,2013-05-18 13:39:00,
2013-05-18 08:44:00,58.8,52.0,30.16,ESE,107,4.0,5.0,78,0.00,,,0.00,223,Wunderground v.1.15,2013-05-18 13:44:00,
2013-05-18 08:49:00,59.0,51.8,30.16,ESE,121,2.0,7.0,77,0.00,,,0.00,236,Wunderground v.1.15,2013-05-18 13:49:00,
2013-05-18 08:54:00,59.2,52.3,30.16,ESE,103,4.0,6.0,78,0.00,,,0.00,197,Wunderground v.1.15,2013-05-18 13:54:00,
2013-05-18 08:59:00,59.4,52.2,30.16,East,99,2.0,7.0,77,0.00,,,0.00,176,Wunderground v.1.15,2013-05-18 13:59:00,
2013-05-18 09:04:00,59.5,51.9,30.16,ESE,109,0.0,8.0,76,0.00,,,0.00,176,Wunderground v.1.15,2013-05-18 14:04:00,
2013-05-18 09:09:00,59.6,52.0,30.16,ESE,112,6.0,8.0,76,0.00,,,0.00,207,Wunderground v.1.15,2013-05-18 14:09:00,
2013-05-18 09:14:00,59.6,52.0,30.16,ESE,111,0.0,8.0,76,0.00,,,0.00,207,Wunderground v.1.15,2013-05-18 14:14:00,
2013-05-18 09:19:00,59.8,51.9,30.16,ESE,107,5.0,8.0,75,0.00,,,0.00,178,Wunderground v.1.15,2013-05-18 14:19:00,
2013-05-18 09:24:00,59.8,52.2,30.16,ESE,103,0.0,8.0,76,0.00,,,0.00,230,Wunderground v.1.15,2013-05-18 14:24:00,
2013-05-18 09:29:00,60.0,52.1,30.16,East,100,6.0,8.0,75,0.00,,,0.00,255,Wunderground v.1.15,2013-05-18 14:29:00,
2013-05-18 09:34:00,60.2,52.6,30.16,ESE,107,1.0,6.0,76,0.00,,,0.00,265,Wunderground v.1.15,2013-05-18 14:34:00,
2013-05-18 09:39:00,60.4,52.8,30.16,East,92,6.0,8.0,76,0.00,,,0.00,332,Wunderground v.1.15,2013-05-18 14:39:00,
2013-05-18 09:44:00,60.6,52.3,30.15,ESE,112,5.0,9.0,74,0.00,,,0.00,359,Wunderground v.1.15,2013-05-18 14:44:00,
2013-05-18 09:49:00,60.8,53.2,30.15,ESE,123,8.0,9.0,76,0.00,,,0.00,339,Wunderground v.1.15,2013-05-18 14:49:00,
2013-05-18 09:54:00,61.1,53.5,30.15,ESE,119,4.0,9.0,76,0.00,,,0.00,302,Wunderground v.1.15,2013-05-18 14:54:00,
2013-05-18 09:59:00,61.2,53.2,30.16,ESE,113,6.0,9.0,75,0.00,,,0.00,343,Wunderground v.1.15,2013-05-18 14:59:00,
2013-05-18 10:04:00,61.3,53.3,30.15,ESE,113,5.0,9.0,75,0.00,,,0.00,359,Wunderground v.1.15,2013-05-18 15:04:00,
2013-05-18 10:09:00,61.6,54.7,30.16,ESE,105,7.0,9.0,78,0.00,,,0.00,410,Wunderground v.1.15,2013-05-18 15:09:00,
2013-05-18 10:14:00,61.8,54.2,30.15,ESE,109,5.0,12.0,76,0.00,,,0.00,352,Wunderground v.1.15,2013-05-18 15:14:00,
2013-05-18 10:19:00,61.8,53.8,30.15,ESE,116,4.0,12.0,75,0.00,,,0.00,355,Wunderground v.1.15,2013-05-18 15:19:00,
2013-05-18 10:24:00,61.8,54.2,30.16,ESE,112,5.0,10.0,76,0.00,,,0.00,387,Wunderground v.1.15,2013-05-18 15:24:00,
2013-05-18 10:29:00,62.0,54.7,30.16,SE,144,2.0,10.0,77,0.00,,,0.00,360,Wunderground v.1.15,2013-05-18 15:29:00,
2013-05-18 10:34:00,62.1,55.2,30.17,SE,124,5.0,11.0,78,0.00,,,0.00,336,Wunderground v.1.15,2013-05-18 15:34:00,
2013-05-18 10:39:00,62.0,54.7,30.17,ESE,117,5.0,11.0,77,0.00,,,0.00,338,Wunderground v.1.15,2013-05-18 15:39:00,
2013-05-18 10:44:00,62.1,55.2,30.17,ESE,113,8.0,9.0,78,0.00,,,0.00,334,Wunderground v.1.15,2013-05-18 15:44:00,
2013-05-18 10:49:00,62.2,55.6,30.17,ESE,107,0.0,9.0,79,0.00,,,0.00,345,Wunderground v.1.15,2013-05-18 15:49:00,
2013-05-18 10:54:00,62.5,56.2,30.17,SSE,158,8.0,9.0,80,0.00,,,0.00,345,Wunderground v.1.15,2013-05-18 15:54:00,
2013-05-18 10:59:00,62.7,55.7,30.17,SE,141,7.0,9.0,78,0.00,,,0.00,359,Wunderground v.1.15,2013-05-18 15:59:00,
2013-05-18 11:04:00,62.7,56.1,30.17,SE,130,6.0,7.0,79,0.00,,,0.00,399,Wunderground v.1.15,2013-05-18 16:04:00,
2013-05-18 11:09:00,63.0,56.4,30.16,SE,144,5.0,8.0,79,0.00,,,0.00,431,Wunderground v.1.15,2013-05-18 16:09:00,
2013-05-18 11:14:00,63.2,56.6,30.16,ESE,106,6.0,10.0,79,0.00,,,0.00,436,Wunderground v.1.15,2013-05-18 16:14:00,
2013-05-18 11:19:00,63.4,57.1,30.16,SSE,154,6.0,10.0,80,0.00,,,0.00,455,Wunderground v.1.15,2013-05-18 16:19:00,
2013-05-18 11:24:00,63.6,57.0,30.16,ESE,118,5.0,8.0,79,0.00,,,0.00,459,Wunderground v.1.15,2013-05-18 16:24:00,
2013-05-18 11:29:00,64.0,58.1,30.15,SSE,167,6.0,8.0,81,0.00,,,0.00,598,Wunderground v.1.15,2013-05-18 16:29:00,
2013-05-18 11:34:00,64.4,58.4,30.16,SE,133,2.0,8.0,81,0.00,,,0.00,721,Wunderground v.1.15,2013-05-18 16:34:00,
2013-05-18 11:39:00,64.9,58.6,30.15,ESE,104,1.0,8.0,80,0.00,,,0.00,619,Wunderground v.1.15,2013-05-18 16:39:00,
2013-05-18 11:44:00,65.6,58.9,30.15,East,92,5.0,11.0,79,0.00,,,0.00,970,Wunderground v.1.15,2013-05-18 16:44:00,
2013-05-18 11:49:00,66.0,59.3,30.15,SE,146,2.0,11.0,79,0.00,,,0.00,923,Wunderground v.1.15,2013-05-18 16:49:00,
2013-05-18 11:54:00,66.4,59.7,30.15,ESE,106,2.0,9.0,79,0.00,,,0.00,921,Wunderground v.1.15,2013-05-18 16:54:00,
2013-05-18 11:59:00,66.6,59.9,30.15,ESE,110,7.0,11.0,79,0.00,,,0.00,886,Wunderground v.1.15,2013-05-18 16:59:00,
2013-05-18 12:04:00,66.8,60.4,30.15,East,85,4.0,7.0,80,0.00,,,0.00,860,Wunderground v.1.15,2013-05-18 17:04:00,
2013-05-18 12:09:00,66.9,60.2,30.15,SE,138,5.0,8.0,79,0.00,,,0.00,879,Wunderground v.1.15,2013-05-18 17:09:00,
2013-05-18 12:14:00,67.3,60.2,30.14,ESE,121,1.0,7.0,78,0.00,,,0.00,893,Wunderground v.1.15,2013-05-18 17:14:00,
2013-05-18 12:19:00,67.7,61.0,30.14,East,98,2.0,11.0,79,0.00,,,0.00,875,Wunderground v.1.15,2013-05-18 17:19:00,
2013-05-18 12:24:00,68.0,61.2,30.14,SE,126,5.0,11.0,79,0.00,,,0.00,888,Wunderground v.1.15,2013-05-18 17:24:00,
2013-05-18 12:29:00,68.4,62.0,30.14,ESE,119,5.0,11.0,80,0.00,,,0.00,875,Wunderground v.1.15,2013-05-18 17:29:00,
2013-05-18 12:34:00,68.6,61.8,30.14,SSE,153,8.0,11.0,79,0.00,,,0.00,896,Wunderground v.1.15,2013-05-18 17:34:00,
2013-05-18 12:39:00,68.7,61.6,30.13,SSE,161,0.0,11.0,78,0.00,,,0.00,889,Wunderground v.1.15,2013-05-18 17:39:00,
2013-05-18 12:44:00,69.1,61.9,30.13,SSE,153,5.0,12.0,78,0.00,,,0.00,916,Wunderground v.1.15,2013-05-18 17:44:00,
2013-05-18 12:50:00,69.5,62.0,30.13,SSE,148,4.0,6.0,77,0.00,,,0.00,905,Wunderground v.1.15,2013-05-18 17:50:00,
2013-05-18 12:55:00,69.8,62.6,30.12,SSE,150,6.0,12.0,78,0.00,,,0.00,907,Wunderground v.1.15,2013-05-18 17:55:00,
2013-05-18 13:00:00,69.9,62.0,30.12,ESE,111,6.0,6.0,76,0.00,,,0.00,527,Wunderground v.1.15,2013-05-18 18:00:00,
2013-05-18 13:05:00,70.2,62.6,30.12,South,174,9.0,12.0,77,0.00,,,0.00,877,Wunderground v.1.15,2013-05-18 18:05:00,
2013-05-18 13:10:00,70.5,62.9,30.11,SSE,147,5.0,8.0,77,0.00,,,0.00,889,Wunderground v.1.15,2013-05-18 18:10:00,
2013-05-18 13:15:00,70.6,62.7,30.11,SSE,153,6.0,9.0,76,0.00,,,0.00,902,Wunderground v.1.15,2013-05-18 18:15:00,
2013-05-18 13:20:00,71.0,63.1,30.11,East,93,4.0,5.0,76,0.00,,,0.00,868,Wunderground v.1.15,2013-05-18 18:20:00,
2013-05-18 13:25:00,71.4,63.1,30.11,SSE,152,5.0,11.0,75,0.00,,,0.00,858,Wunderground v.1.15,2013-05-18 18:25:00,
2013-05-18 13:30:00,71.6,64.0,30.11,SE,126,5.0,5.0,77,0.00,,,0.00,874,Wunderground v.1.15,2013-05-18 18:30:00,
2013-05-18 13:35:00,72.1,64.5,30.11,SSE,159,5.0,7.0,77,0.00,,,0.00,904,Wunderground v.1.15,2013-05-18 18:35:00,
2013-05-18 13:40:00,72.4,64.0,30.10,SSE,167,6.0,6.0,75,0.00,,,0.00,840,Wunderground v.1.15,2013-05-18 18:40:00,
2013-05-18 13:45:00,72.8,64.8,30.10,ESE,123,7.0,8.0,76,0.00,,,0.00,939,Wunderground v.1.15,2013-05-18 18:45:00,
2013-05-18 13:50:00,72.8,64.0,30.10,SSE,150,0.0,5.0,74,0.00,,,0.00,564,Wunderground v.1.15,2013-05-18 18:50:00,
2013-05-18 13:55:00,72.5,63.7,30.10,SSE,166,7.0,10.0,74,0.00,,,0.00,622,Wunderground v.1.15,2013-05-18 18:55:00,
2013-05-18 14:00:00,72.4,64.0,30.10,SE,126,2.0,6.0,75,0.00,,,0.00,802,Wunderground v.1.15,2013-05-18 19:00:00,
2013-05-18 14:05:00,72.8,65.5,30.10,South,181,5.0,9.0,78,0.00,,,0.00,983,Wunderground v.1.15,2013-05-18 19:05:00,
2013-05-18 14:10:00,73.4,65.7,30.10,SSE,148,6.0,7.0,77,0.00,,,0.00,970,Wunderground v.1.15,2013-05-18 19:10:00,
2013-05-18 14:15:00,73.8,64.6,30.10,SW,220,6.0,9.0,73,0.00,,,0.00,919,Wunderground v.1.15,2013-05-18 19:15:00,
2013-05-18 14:20:00,73.7,64.9,30.10,South,175,0.0,4.0,74,0.00,,,0.00,677,Wunderground v.1.15,2013-05-18 19:20:00,
2013-05-18 14:25:00,74.0,65.2,30.10,South,170,4.0,11.0,74,0.00,,,0.00,962,Wunderground v.1.15,2013-05-18 19:25:00,
2013-05-18 14:30:00,74.4,66.0,30.09,South,183,0.0,3.0,75,0.00,,,0.00,981,Wunderground v.1.15,2013-05-18 19:30:00,
2013-05-18 14:35:00,74.7,65.9,30.09,SSE,151,2.0,8.0,74,0.00,,,0.00,496,Wunderground v.1.15,2013-05-18 19:35:00,
2013-05-18 14:40:00,74.7,64.7,30.09,ESE,108,5.0,6.0,71,0.00,,,0.00,555,Wunderground v.1.15,2013-05-18 19:40:00,
2013-05-18 14:45:00,74.3,64.7,30.09,ESE,122,4.0,7.0,72,0.00,,,0.00,912,Wunderground v.1.15,2013-05-18 19:45:00,
2013-05-18 14:50:00,74.3,64.7,30.08,South,171,4.0,5.0,72,0.00,,,0.00,450,Wunderground v.1.15,2013-05-18 19:50:00,
2013-05-18 14:55:00,74.6,66.1,30.08,ESE,107,7.0,8.0,75,0.00,,,0.00,837,Wunderground v.1.15,2013-05-18 19:55:00,
2013-05-18 15:00:00,74.9,65.7,30.08,South,189,4.0,5.0,73,0.00,,,0.00,462,Wunderground v.1.15,2013-05-18 20:00:00,
2013-05-18 15:05:00,75.2,65.6,30.07,SE,141,8.0,9.0,72,0.00,,,0.00,881,Wunderground v.1.15,2013-05-18 20:05:00,
2013-05-18 15:10:00,75.4,66.1,30.07,SE,136,9.0,9.0,73,0.00,,,0.00,874,Wunderground v.1.15,2013-05-18 20:10:00,
2013-05-18 15:15:00,75.8,65.7,30.07,SSE,165,9.0,11.0,71,0.00,,,0.00,946,Wunderground v.1.15,2013-05-18 20:15:00,
2013-05-18 15:20:00,75.7,66.0,30.06,SSE,163,9.0,11.0,72,0.00,,,0.00,847,Wunderground v.1.15,2013-05-18 20:20:00,
2013-05-18 15:25:00,75.6,65.9,30.06,South,186,3.0,12.0,72,0.00,,,0.00,765,Wunderground v.1.15,2013-05-18 20:25:00,
2013-05-18 15:30:00,75.7,65.6,30.06,South,186,2.0,6.0,71,0.00,,,0.00,795,Wunderground v.1.15,2013-05-18 20:30:00,
2013-05-18 15:35:00,76.0,64.7,30.05,South,190,2.0,10.0,68,0.00,,,0.00,710,Wunderground v.1.15,2013-05-18 20:35:00,
2013-05-18 15:40:00,76.3,65.4,30.05,South,178,6.0,10.0,69,0.00,,,0.00,777,Wunderground v.1.15,2013-05-18 20:40:00,
2013-05-18 15:45:00,76.5,66.0,30.05,South,172,5.0,10.0,70,0.00,,,0.00,782,Wunderground v.1.15,2013-05-18 20:45:00,
2013-05-18 15:50:00,76.7,65.3,30.05,SSE,154,9.0,9.0,68,0.00,,,0.00,758,Wunderground v.1.15,2013-05-18 20:50:00,
2013-05-18 15:55:00,76.8,63.7,30.05,South,179,5.0,11.0,64,0.00,,,0.00,707,Wunderground v.1.15,2013-05-18 20:55:00,
2013-05-18 16:00:00,76.8,64.6,30.05,SSW,203,8.0,9.0,66,0.00,,,0.00,596,Wunderground v.1.15,2013-05-18 21:00:00,
2013-05-18 16:05:00,77.0,63.9,30.05,SSE,149,7.0,11.0,64,0.00,,,0.00,621,Wunderground v.1.15,2013-05-18 21:05:00,
2013-05-18 16:10:00,76.9,63.8,30.04,SE,134,5.0,11.0,64,0.00,,,0.00,696,Wunderground v.1.15,2013-05-18 21:10:00,
2013-05-18 16:15:00,76.9,64.2,30.04,SSE,165,7.0,12.0,65,0.00,,,0.00,647,Wunderground v.1.15,2013-05-18 21:15:00,
2013-05-18 16:20:00,76.9,64.2,30.04,SSE,148,7.0,9.0,65,0.00,,,0.00,650,Wunderground v.1.15,2013-05-18 21:20:00,
2013-05-18 16:25:00,76.9,64.2,30.04,SE,133,8.0,11.0,65,0.00,,,0.00,631,Wunderground v.1.15,2013-05-18 21:25:00,
2013-05-18 16:30:00,77.0,63.9,30.05,SSE,165,6.0,12.0,64,0.00,,,0.00,640,Wunderground v.1.15,2013-05-18 21:30:00,
2013-05-18 16:35:00,76.8,63.7,30.05,SSE,149,9.0,14.0,64,0.00,,,0.00,473,Wunderground v.1.15,2013-05-18 21:35:00,
2013-05-18 16:40:00,76.4,64.6,30.04,SSE,148,4.0,8.0,67,0.00,,,0.00,522,Wunderground v.1.15,2013-05-18 21:40:00,
2013-05-18 16:45:00,76.3,63.2,30.04,ESE,120,2.0,13.0,64,0.00,,,0.00,211,Wunderground v.1.15,2013-05-18 21:45:00,
2013-05-18 16:51:00,76.2,64.9,30.04,SSE,148,2.0,6.0,68,0.00,,,0.00,540,Wunderground v.1.15,2013-05-18 21:51:00,
2013-05-18 16:56:00,76.6,64.4,30.04,SSE,159,6.0,13.0,66,0.00,,,0.00,512,Wunderground v.1.15,2013-05-18 21:56:00,
2013-05-18 17:01:00,76.7,64.0,30.04,SE,144,12.0,13.0,65,0.00,,,0.00,461,Wunderground v.1.15,2013-05-18 22:01:00,
2013-05-18 17:06:00,76.7,64.0,30.04,SE,131,4.0,13.0,65,0.00,,,0.00,445,Wunderground v.1.15,2013-05-18 22:06:00,
2013-05-18 17:11:00,76.8,63.7,30.04,ESE,111,7.0,8.0,64,0.00,,,0.00,445,Wunderground v.1.15,2013-05-18 22:11:00,
2013-05-18 17:16:00,76.8,63.7,30.04,SE,131,4.0,12.0,64,0.00,,,0.00,406,Wunderground v.1.15,2013-05-18 22:16:00,
2013-05-18 17:21:00,76.7,64.0,30.04,SE,145,11.0,13.0,65,0.00,,,0.00,199,Wunderground v.1.15,2013-05-18 22:21:00,
2013-05-18 17:26:00,76.3,64.1,30.04,SE,142,8.0,13.0,66,0.00,,,0.00,285,Wunderground v.1.15,2013-05-18 22:26:00,
2013-05-18 17:31:00,76.3,64.1,30.03,SE,137,8.0,9.0,66,0.00,,,0.00,360,Wunderground v.1.15,2013-05-18 22:31:00,
2013-05-18 17:36:00,76.3,63.7,30.03,SSE,157,7.0,10.0,65,0.00,,,0.00,301,Wunderground v.1.15,2013-05-18 22:36:00,
2013-05-18 17:41:00,76.3,63.7,30.03,SSE,147,8.0,12.0,65,0.00,,,0.00,366,Wunderground v.1.15,2013-05-18 22:41:00,
2013-05-18 17:46:00,76.4,63.8,30.03,SE,141,6.0,13.0,65,0.00,,,0.00,355,Wunderground v.1.15,2013-05-18 22:46:00,
2013-05-18 17:51:00,76.4,63.8,30.03,SE,142,7.0,8.0,65,0.00,,,0.00,316,Wunderground v.1.15,2013-05-18 22:51:00,
2013-05-18 17:56:00,76.4,63.3,30.03,SE,126,4.0,10.0,64,0.00,,,0.00,295,Wunderground v.1.15,2013-05-18 22:56:00,
2013-05-18 18:01:00,76.4,63.8,30.03,SE,135,8.0,11.0,65,0.00,,,0.00,271,Wunderground v.1.15,2013-05-18 23:01:00,
2013-05-18 18:06:00,76.2,63.1,30.03,SE,126,5.0,13.0,64,0.00,,,0.00,246,Wunderground v.1.15,2013-05-18 23:06:00,
2013-05-18 18:11:00,76.1,63.5,30.03,SE,131,5.0,8.0,65,0.00,,,0.00,239,Wunderground v.1.15,2013-05-18 23:11:00,
2013-05-18 18:16:00,76.2,63.6,30.02,ESE,121,2.0,8.0,65,0.00,,,0.00,185,Wunderground v.1.15,2013-05-18 23:16:00,
2013-05-18 18:21:00,76.2,63.6,30.02,ESE,110,5.0,7.0,65,0.00,,,0.00,179,Wunderground v.1.15,2013-05-18 23:21:00,
2013-05-18 18:26:00,76.0,63.4,30.02,ESE,123,7.0,9.0,65,0.00,,,0.00,220,Wunderground v.1.15,2013-05-18 23:26:00,
2013-05-18 18:31:00,75.9,63.7,30.02,East,101,2.0,8.0,66,0.00,,,0.00,188,Wunderground v.1.15,2013-05-18 23:31:00,
2013-05-18 18:37:00,75.8,64.1,30.02,SE,126,6.0,8.0,67,0.00,,,0.00,162,Wunderground v.1.15,2013-05-18 23:37:00,
2013-05-18 18:42:00,75.7,63.1,30.02,SE,131,8.0,8.0,65,0.00,,,0.00,162,Wunderground v.1.15,2013-05-18 23:42:00,
2013-05-18 18:47:00,75.5,62.9,30.03,ESE,107,6.0,11.0,65,0.00,,,0.00,148,Wunderground v.1.15,2013-05-18 23:47:00,
2013-05-18 18:52:00,75.3,62.7,30.02,ESE,113,6.0,12.0,65,0.00,,,0.00,142,Wunderground v.1.15,2013-05-18 23:52:00,
2013-05-18 18:57:00,75.2,63.5,30.02,ESE,118,7.0,12.0,67,0.00,,,0.00,116,Wunderground v.1.15,2013-05-18 23:57:00,
2013-05-18 19:02:00,75.0,63.3,30.03,ESE,107,4.0,7.0,67,0.00,,,0.00,100,Wunderground v.1.15,2013-05-19 00:02:00,
2013-05-18 19:07:00,74.8,62.7,30.02,ESE,119,6.0,11.0,66,0.00,,,0.00,93,Wunderground v.1.15,2013-05-19 00:07:00,
2013-05-18 19:12:00,74.6,62.9,30.03,SE,146,8.0,8.0,67,0.00,,,0.00,84,Wunderground v.1.15,2013-05-19 00:12:00,
2013-05-18 19:17:00,74.4,63.1,30.02,East,92,4.0,13.0,68,0.00,,,0.00,77,Wunderground v.1.15,2013-05-19 00:17:00,
2013-05-18 19:22:00,74.1,63.3,30.02,SSE,157,6.0,11.0,69,0.00,,,0.00,70,Wunderground v.1.15,2013-05-19 00:22:00,
2013-05-18 19:27:00,73.9,63.1,30.02,SSE,148,5.0,11.0,69,0.00,,,0.00,58,Wunderground v.1.15,2013-05-19 00:27:00,
2013-05-18 19:32:00,73.6,63.6,30.02,ESE,107,1.0,6.0,71,0.00,,,0.00,53,Wunderground v.1.15,2013-05-19 00:32:00,
2013-05-18 19:37:00,73.3,63.7,30.02,East,100,1.0,7.0,72,0.00,,,0.00,47,Wunderground v.1.15,2013-05-19 00:37:00,
2013-05-18 19:42:00,73.0,63.4,30.02,ESE,111,0.0,8.0,72,0.00,,,0.00,42,Wunderground v.1.15,2013-05-19 00:42:00,
2013-05-18 19:47:00,72.7,63.5,30.03,ESE,104,1.0,8.0,73,0.00,,,0.00,39,Wunderground v.1.15,2013-05-19 00:47:00,
2013-05-18 19:52:00,72.3,63.2,30.03,East,92,2.0,8.0,73,0.00,,,0.00,32,Wunderground v.1.15,2013-05-19 00:52:00,
2013-05-18 19:57:00,72.0,62.9,30.03,ESE,117,0.0,13.0,73,0.00,,,0.00,26,Wunderground v.1.15,2013-05-19 00:57:00,
2013-05-18 20:02:00,71.7,63.0,30.03,ESE,107,2.0,7.0,74,0.00,,,0.00,21,Wunderground v.1.15,2013-05-19 01:02:00,
2013-05-18 20:07:00,71.4,63.1,30.03,ESE,105,0.0,7.0,75,0.00,,,0.00,14,Wunderground v.1.15,2013-05-19 01:07:00,
2013-05-18 20:12:00,71.0,62.7,30.03,East,99,4.0,6.0,75,0.00,,,0.00,9,Wunderground v.1.15,2013-05-19 01:12:00,
2013-05-18 20:17:00,70.7,62.8,30.02,East,98,0.0,7.0,76,0.00,,,0.00,5,Wunderground v.1.15,2013-05-19 01:17:00,
2013-05-18 20:22:00,70.3,62.4,30.02,ESE,108,1.0,7.0,76,0.00,,,0.00,5,Wunderground v.1.15,2013-05-19 01:22:00,
2013-05-18 20:27:00,69.9,62.0,30.02,East,101,0.0,7.0,76,0.00,,,0.00,0,Wunderground v.1.15,2013-05-19 01:27:00,
2013-05-18 20:32:00,69.5,62.0,30.03,ESE,117,1.0,8.0,77,0.00,,,0.00,0,Wunderground v.1.15,2013-05-19 01:32:00,
2013-05-18 20:37:00,69.2,61.7,30.02,ESE,105,4.0,10.0,77,0.00,,,0.00,0,Wunderground v.1.15,2013-05-19 01:37:00,
2013-05-18 20:42:00,68.9,61.4,30.02,East,93,0.0,7.0,77,0.00,,,0.00,0,Wunderground v.1.15,2013-05-19 01:42:00,
2013-05-18 20:47:00,68.6,61.5,30.03,ESE,112,1.0,7.0,78,0.00,,,0.00,0,Wunderground v.1.15,2013-05-19 01:47:00,
2013-05-18 20:52:00,68.4,61.3,30.03,ESE,105,0.0,6.0,78,0.00,,,0.00,0,Wunderground v.1.15,2013-05-19 01:52:00,
2013-05-18 20:57:00,68.1,61.3,30.03,ENE,78,2.0,6.0,79,0.00,,,0.00,0,Wunderground v.1.15,2013-05-19 01:57:00,
2013-05-18 21:02:00,67.8,61.0,30.03,East,92,2.0,6.0,79,0.00,,,0.00,0,Wunderground v.1.15,2013-05-19 02:02:00,
2013-05-18 21:07:00,67.6,60.9,30.03,ESE,107,4.0,7.0,79,0.00,,,0.00,0,Wunderground v.1.15,2013-05-19 02:07:00,
2013-05-18 21:12:00,67.4,60.7,30.03,ESE,107,1.0,5.0,79,0.00,,,0.00,0,Wunderground v.1.15,2013-05-19 02:12:00,
2013-05-18 21:17:00,67.2,60.5,30.04,East,100,1.0,7.0,79,0.00,,,0.00,0,Wunderground v.1.15,2013-05-19 02:17:00,
2013-05-18 21:22:00,67.0,60.6,30.03,East,96,0.0,5.0,80,0.00,,,0.00,0,Wunderground v.1.15,2013-05-19 02:22:00,
2013-05-18 21:27:00,66.8,60.4,30.04,East,101,1.0,5.0,80,0.00,,,0.00,0,Wunderground v.1.15,2013-05-19 02:27:00,
2013-05-18 21:32:00,66.6,60.2,30.03,East,98,0.0,4.0,80,0.00,,,0.00,0,Wunderground v.1.15,2013-05-19 02:32:00,
2013-05-18 21:37:00,66.3,60.3,30.03,East,101,2.0,5.0,81,0.00,,,0.00,0,Wunderground v.1.15,2013-05-19 02:37:00,
2013-05-18 21:42:00,66.1,60.1,30.03,East,100,0.0,4.0,81,0.00,,,0.00,0,Wunderground v.1.15,2013-05-19 02:42:00,
2013-05-18 21:47:00,65.9,60.2,30.03,East,100,1.0,6.0,82,0.00,,,0.00,0,Wunderground v.1.15,2013-05-19 02:47:00,
2013-05-18 21:52:00,65.8,60.2,30.03,East,100,1.0,4.0,82,0.00,,,0.00,0,Wunderground v.1.15,2013-05-19 02:52:00,
2013-05-18 21:57:00,65.6,60.0,30.03,East,93,2.0,5.0,82,0.00,,,0.00,0,Wunderground v.1.15,2013-05-19 02:57:00,
2013-05-18 22:02:00,65.4,59.8,30.03,ENE,61,1.0,5.0,82,0.00,,,0.00,0,Wunderground v.1.15,2013-05-19 03:02:00,
2013-05-18 22:07:00,65.2,59.9,30.03,East,91,1.0,8.0,83,0.00,,,0.00,0,Wunderground v.1.15,2013-05-19 03:07:00,
2013-05-18 22:12:00,65.0,59.7,30.03,ESE,106,0.0,6.0,83,0.00,,,0.00,0,Wunderground v.1.15,2013-05-19 03:12:00,
2013-05-18 22:17:00,64.9,59.6,30.03,ESE,102,0.0,6.0,83,0.00,,,0.00,0,Wunderground v.1.15,2013-05-19 03:17:00,
2013-05-18 22:22:00,64.8,59.5,30.03,ESE,102,1.0,4.0,83,0.00,,,0.00,0,Wunderground v.1.15,2013-05-19 03:22:00,
2013-05-18 22:27:00,64.7,59.8,30.03,ESE,108,1.0,5.0,84,0.00,,,0.00,0,Wunderground v.1.15,2013-05-19 03:27:00,
2013-05-18 22:33:00,64.5,59.6,30.02,ESE,103,1.0,7.0,84,0.00,,,0.00,0,Wunderground v.1.15,2013-05-19 03:33:00,
2013-05-18 22:38:00,64.4,59.5,30.02,ESE,116,0.0,8.0,84,0.00,,,0.00,0,Wunderground v.1.15,2013-05-19 03:38:00,
2013-05-18 22:43:00,64.4,59.5,30.02,ESE,108,0.0,7.0,84,0.00,,,0.00,0,Wunderground v.1.15,2013-05-19 03:43:00,
2013-05-18 22:48:00,64.4,59.5,30.01,ESE,115,1.0,9.0,84,0.00,,,0.00,0,Wunderground v.1.15,2013-05-19 03:48:00,
2013-05-18 22:53:00,64.4,59.5,30.01,SE,126,7.0,7.0,84,0.00,,,0.00,0,Wunderground v.1.15,2013-05-19 03:53:00,
2013-05-18 22:58:00,64.4,59.5,30.01,East,101,4.0,7.0,84,0.00,,,0.00,0,Wunderground v.1.15,2013-05-19 03:58:00,
2013-05-18 23:01:00,64.3,59.4,30.01,East,86,1.0,2.0,84,0.00,,,0.00,0,Wunderground v.1.15,2013-05-19 04:01:00,
2013-05-18 23:06:00,64.2,59.3,30.01,ESE,113,5.0,9.0,84,0.00,,,0.00,0,Wunderground v.1.15,2013-05-19 04:06:00,
2013-05-18 23:11:00,64.3,59.4,30.01,SE,128,7.0,7.0,84,0.00,,,0.00,0,Wunderground v.1.15,2013-05-19 04:11:00,
2013-05-18 23:16:00,64.5,59.6,30.01,SE,144,1.0,12.0,84,0.00,,,0.00,0,Wunderground v.1.15,2013-05-19 04:16:00,
2013-05-18 23:21:00,64.7,59.4,30.01,SE,130,5.0,7.0,83,0.00,,,0.00,0,Wunderground v.1.15,2013-05-19 04:21:00,
2013-05-18 23:26:00,64.6,59.3,30.01,SE,146,14.0,14.0,83,0.00,,,0.00,0,Wunderground v.1.15,2013-05-19 04:26:00,
2013-05-18 23:32:00,64.5,59.2,30.00,ESE,119,7.0,7.0,83,0.00,,,0.00,0,Wunderground v.1.15,2013-05-19 04:32:00,
2013-05-18 23:37:00,64.4,59.5,30.01,ESE,106,0.0,7.0,84,0.00,,,0.00,0,Wunderground v.1.15,2013-05-19 04:37:00,
2013-05-18 23:42:00,64.4,59.5,30.01,ESE,111,1.0,12.0,84,0.00,,,0.00,0,Wunderground v.1.15,2013-05-19 04:42:00,
2013-05-18 23:47:00,64.4,59.5,30.01,ESE,121,5.0,12.0,84,0.00,,,0.00,0,Wunderground v.1.15,2013-05-19 04:47:00,
2013-05-18 23:52:00,64.4,59.1,30.01,SE,136,6.0,8.0,83,0.00,,,0.00,0,Wunderground v.1.15,2013-05-19 04:52:00,
2013-05-18 23:57:00,64.4,59.5,30.01,SE,141,8.0,8.0,84,0.00,,,0.00,0,Wunderground v.1.15,2013-05-19 04:57:00,